HK6RM-21 Weather Reports


time (UTC)temp
C
wind
direction
speed
KPH
gust
KPH
rain 1hr
cm
rain 24hr
cm
rain mn
cm
humidity
%
barometer
mb
20260504150449 28 203 1.6 4.8 0.00 0.00 0.00 91 1013.0
20260504140445 24 132 4.8 1.6 0.00 0.00 0.00 96 1013.0
20260504130436 24 132 4.8 1.6 0.00 0.00 0.00 96 1013.0
20260504110420 24 132 4.8 1.6 0.00 0.00 0.00 96 1013.0
20260504100415 24 132 4.8 1.6 0.00 0.00 0.00 96 1013.0
20260504081605 24 132 4.8 1.6 0.00 0.00 0.00 96 1012.0
20260504080404 24 132 4.8 1.6 0.00 0.00 0.00 96 1012.0
20260504070356 25 106 1.6 1.6 0.00 0.00 0.00 96 1013.0
20260504050343 25 106 1.6 1.6 0.00 0.00 0.00 96 1014.0
20260504045142 25 106 3.2 1.6 0.00 0.00 0.00 96 1013.0
20260504043940 26 82 1.6 1.6 0.00 0.00 0.00 95 1013.0
20260504042740 26 82 1.6 1.6 0.00 0.00 0.00 95 1014.0
20260504041539 26 82 1.6 1.6 0.00 0.00 0.00 95 1014.0
20260504040338 26 82 1.6 1.6 0.00 0.00 0.00 95 1014.0
20260504035137 26 82 3.2 3.2 0.00 0.00 0.00 95 1013.0
20260504033935 26 121 1.6 1.6 0.00 0.00 0.00 93 1013.0
20260504032734 26 121 1.6 1.6 0.03 0.00 0.00 93 1014.0
20260504031533 26 121 1.6 1.6 0.03 0.00 0.00 93 1014.0
20260504030331 26 121 1.6 1.6 0.03 0.00 0.00 93 1014.0
20260504025131 26 121 1.6 1.6 0.00 0.00 0.00 93 1013.0
20260504023927 26 121 1.6 1.6 0.03 0.00 0.00 93 1013.0
20260504022727 26 121 1.6 1.6 0.05 0.00 0.00 93 1013.0
20260504021526 26 121 1.6 1.6 0.08 0.00 0.00 93 1013.0
20260504020320 26 121 1.6 1.6 0.10 0.00 0.00 93 1013.0
20260504015120 26 121 1.6 3.2 0.03 0.00 0.00 93 1012.0
20260504013919 27 77 1.6 1.6 0.00 0.00 0.00 90 1012.0
20260504012717 27 77 1.6 1.6 0.00 0.00 0.00 90 1012.0
20260504011517 27 77 1.6 1.6 0.00 0.00 0.00 90 1012.0
20260504010314 27 77 1.6 1.6 0.00 0.00 0.00 90 1012.0
20260504005114 27 77 1.6 3.2 0.00 0.00 0.00 90 1011.0
20260504003913 27 68 1.6 1.6 0.00 0.00 0.00 88 1011.0
20260504002712 27 68 1.6 3.2 0.00 0.00 0.00 88 1011.0
20260504001511 28 68 1.6 3.2 0.00 0.00 0.00 87 1009.0
20260504000310 28 68 1.6 3.2 0.00 0.00 0.00 87 1009.0
20260503235109 28 67 1.6 1.6 0.00 0.00 0.00 87 1009.0
20260503233908 28 16 1.6 1.6 0.00 0.00 0.00 82 1009.0
20260503232708 28 16 1.6 1.6 0.00 0.00 0.00 82 1009.0
20260503231507 28 16 1.6 1.6 0.00 0.00 0.00 82 1009.0
20260503230305 28 16 1.6 1.6 0.00 0.00 0.00 82 1008.0
20260503225104 28 16 3.2 3.2 0.00 0.00 0.00 82 1008.0
20260503223903 30 20 1.6 1.6 0.00 0.00 0.00 85 1008.0
20260503222702 30 20 1.6 1.6 0.00 0.00 0.00 85 1008.0
20260503221501 30 20 1.6 1.6 0.00 0.00 0.00 85 1008.0
20260503220300 30 20 1.6 1.6 0.00 0.00 0.00 85 1007.0
20260503215059 30 20 1.6 1.6 0.00 0.00 0.00 85 1007.0
20260503213859 30 20 1.6 1.6 0.00 0.00 0.00 85 1007.0
20260503212658 30 20 1.6 1.6 0.00 0.00 0.00 85 1008.0
20260503211458 30 20 1.6 1.6 0.00 0.00 0.00 85 1008.0
20260503210254 30 20 1.6 1.6 0.00 0.00 0.00 85 1007.0
20260503205053 30 20 1.6 1.6 0.00 0.00 0.00 85 1007.0
20260503203852 30 20 1.6 1.6 0.00 0.00 0.00 85 1007.0
20260503202651 30 20 1.6 1.6 0.00 0.00 0.00 85 1008.0
20260503201451 30 20 1.6 1.6 0.00 0.00 0.00 85 1008.0
20260503200249 30 20 1.6 1.6 0.00 0.00 0.00 85 1008.0
20260503195048 30 20 1.6 1.6 0.00 0.00 0.00 85 1007.0
20260503193848 30 20 1.6 1.6 0.00 0.00 0.00 85 1007.0
20260503192645 30 20 1.6 1.6 0.00 0.00 0.00 85 1009.0
20260503191443 30 20 1.6 1.6 0.00 0.00 0.00 85 1009.0
20260503190242 30 20 1.6 1.6 0.00 0.00 0.00 85 1009.0
20260503185040 30 20 1.6 1.6 0.00 0.00 0.00 85 1008.0
20260503183833 30 20 1.6 1.6 0.00 0.00 0.00 85 1008.0
20260503182632 30 20 1.6 1.6 0.00 0.00 0.00 85 1010.0
20260503180225 30 20 1.6 1.6 0.00 0.00 0.00 85 1010.0
20260503175025 30 20 1.6 1.6 0.00 0.00 0.00 85 1010.0
20260503173825 30 20 1.6 1.6 0.00 0.00 0.00 85 1010.0
20260503172624 30 20 1.6 1.6 0.00 0.00 0.00 85 1012.0
20260503171423 30 20 1.6 1.6 0.00 0.00 0.00 85 1012.0
20260503170221 30 20 1.6 1.6 0.00 0.00 0.00 85 1012.0